Location: Cassano d�Adda
(45.5333°N, 9.5167°E)
Time: 17:10:32
(UTC+00:00)

Cosmos 1092 Rocket - Pass Details

Date: 08 December 2019
Orbit: 953 x 996 km, 83.0° (Epoch: 23 January)

Event Time Altitude Azimuth Distance (km) Brightness Sun altitude
Rises 17:48:16 0° 195° (SSW) 3,695 7.4 -21.9°
Reaches altitude 10° 17:50:49 10° 197° (SSW) 2,747 6.7 -22.3°
Maximum altitude 17:57:05 68° 280° (W) 1,062 4.3 -23.4°
Drops below altitude 10° 18:03:22 10° 4° (N) 2,741 6.2 -24.5°
Sets 18:05:54 0° 7° (N) 3,686 6.9 -24.9°
